TOURFACTS.DK  
Stats and Facts from Tour de France.

Tour de France 2018 starts in 170 days
  Riders   Stages   Teams   Summits   Yearly  


 
Search by year

 2017 - St.21:
 14824 starters.
  5132 different riders.
  635 teams.
  2232 stages.
  454 restdays.
  439589.60 km.
  5653 abandonnees.


Top 3
GC
Christopher Froome86:20:55
Rigoberto Uran86:21:49
Romain Bardet86:23:15
Climb
Warren Barguil169 pt.
Primoz Roglic80 pt.
Thomas De Gendt64 pt.
Sprint
Michael Matthews359 pt.
André Greipel234 pt.
Edvald Boasson Hagen220 pt.
Youth
Simon Yates86:27:09
Louis Meintjes86:29:15
Emanuel Buchmann86:54:16
Facts from Tour de France 1963
  |   Stages.  |   Stage winners.  |   Days in yellow  |   Average speed.  |   Route.  |   Teams.  |   All riders.  |   Rookies.  |   Withdrawls.  |  

  |   GC.  |   Polka  |   Green  |   White  |   Summits. (In tour)  |   Summits. (Points)  |   Miscellaneous.  |  

Stage 10 on 02 - 07 - 1963
         Owning:    Gilbert Desmet 1    
Pick a stage:  1 2a 2b 3 4 5 6a 6b 7 8 9 10 11 12 13 14 15 16 17 18 19 20 21
  PauBagnères-de-Bigorre | Dist: 148.50 km.
Cat: 1Col de l'AubisqueESPFederico Bahamontes
15 points
 
Cat: 1Col du TourmaletESPFederico Bahamontes
15 points
 

Average speed for all riders in stage:  30,776 km./hr.
    Place:Name:Team:Time:Km/h:
FRAJacques AnquetilFRASaint Raphael-Geminiani-Dunlop04:37:18  +  00:00:00=32,131 
ESPJosé Pérez FrancésESPFerrys04:37:18  +  00:00:00=32,131 
FRARaymond PoulidorFRAMercier-BP-Hutchinson04:37:18  +  00:00:00=32,131 
4 ESPFederico BahamontesFRAMargnat-Paloma-Motul-Dunlop04:37:18  +  00:00:00=32,131 
5 FRAHenry DuezFRAPeugeot-BP-Englebert04:37:18  +  00:00:00=32,131 
6 ESPFrancisco GabicNLDKas04:37:18  +  00:00:00=32,131 
7 ESPEsteban MartinESPFerrys04:37:20  +  00:00:02=32,127 
8 FRAClaude MattioFRAMargnat-Paloma-Motul-Dunlop04:38:35  +  00:01:17=31,983 
9 FRAJean-Claude LebaubeFRASaint Raphael-Geminiani-Dunlop04:38:35  +  00:01:17=31,983 
10 BELGilbert Desmet 1BELWiel´s-Groene Leeuw04:38:46  +  00:01:28=31,962 
11 ESPAngelino SolerBELFaema-Flandria04:38:46  +  00:01:28=31,962 
12 BELArmand DesmetBELFaema-Flandria04:38:46  +  00:01:28=31,962 
13 BELEddy PauwelsBELWiel´s-Groene Leeuw04:38:46  +  00:01:28=31,962 
14 ESPMiguel PachecoNLDKas04:38:46  +  00:01:28=31,962 
15 GERDieter PuschelBELWiel´s-Groene Leeuw04:38:46  +  00:01:28=31,962 
16 FRAJean GaincheFRAMercier-BP-Hutchinson04:41:25  +  00:04:07=31,661 
17 BELWilly BocklantBELFaema-Flandria04:41:25  +  00:04:07=31,661 
18 ITARenzo FontonaBELI.B.A.C-Molteni04:41:27  +  00:04:09=31,657 
19 FRAAndré FoucherFRAPelforth-Sauvage-Lejeune-Wolbe..04:41:37  +  00:04:19=31,639 
20 FRAFrançois MahéFRAPelforth-Sauvage-Lejeune-Wolbe..04:41:37  +  00:04:19=31,639 
21 FRAHenri AngladeFRAPelforth-Sauvage-Lejeune-Wolbe..04:41:37  +  00:04:19=31,639 
22 ESPFernando ManzanequeESPFerrys04:41:37  +  00:04:19=31,639 
23 GERHans JunkermannBELWiel´s-Groene Leeuw04:43:38  +  00:06:20=31,414 
24 BELVictor Van SchilFRAMercier-BP-Hutchinson04:43:38  +  00:06:20=31,414 
25 FRALouis RostollanFRASaint Raphael-Geminiani-Dunlop04:43:38  +  00:06:20=31,414 
26 ESPRogelio HernandezESPFerrys04:43:38  +  00:06:20=31,414 
27 ITAGuido CarlesiBELI.B.A.C-Molteni04:44:52  +  00:07:34=31,278 
28 BELFerdinand BrackeFRAPeugeot-BP-Englebert04:45:02  +  00:07:44=31,260 
29 SUIKurt GimmiITACarpano04:45:02  +  00:07:44=31,260 
30 BELJos HoevenaersFRAPeugeot-BP-Englebert04:45:02  +  00:07:44=31,260 
31 FRAGuy IgnolinFRASaint Raphael-Geminiani-Dunlop04:45:02  +  00:07:44=31,260 
32 ITAGraziano BattistiniBELI.B.A.C-Molteni04:45:02  +  00:07:44=31,260 
33 ESPAntonio KarmanyESPFerrys04:45:03  +  00:07:45=31,258 
34 FRAJoseph GroussardFRAPelforth-Sauvage-Lejeune-Wolbe..04:45:26  +  00:08:08=31,216 
35 ENGAlan RamsbottomFRAPelforth-Sauvage-Lejeune-Wolbe..04:45:26  +  00:08:08=31,216 
36 LUXCharly GaulFRAPeugeot-BP-Englebert04:45:26  +  00:08:08=31,216 
37 ITAGiancarlo GentinaITACarpano04:45:26  +  00:08:08=31,216 
38 FRAJean StablinskiFRASaint Raphael-Geminiani-Dunlop04:45:26  +  00:08:08=31,216 
39 BELMichel Van AerdeFRASolo-Terrot-Englebert04:47:52  +  00:10:34=30,952 
40 ITAGiuseppe SartoreITACarpano04:47:52  +  00:10:34=30,952 
41 BELAugust VerhaegenFRAMercier-BP-Hutchinson04:47:52  +  00:10:34=30,952 
42 FRARobert CazalaFRAMercier-BP-Hutchinson04:47:52  +  00:10:34=30,952 
43 ESPGabriel MasESPFerrys04:47:52  +  00:10:34=30,952 
44 NEDDick EnthovenFRAPelforth-Sauvage-Lejeune-Wolbe..04:47:52  +  00:10:34=30,952 
45 BELHenri De WolfFRASolo-Terrot-Englebert04:47:52  +  00:10:34=30,952 
46 NEDAlbertus GeldermansFRASaint Raphael-Geminiani-Dunlop04:47:52  +  00:10:34=30,952 
47 ITADanilo FerrariBELI.B.A.C-Molteni04:47:52  +  00:10:34=30,952 
48 ESPJuan CampilloFRAMargnat-Paloma-Motul-Dunlop04:47:52  +  00:10:34=30,952 
49 BELFrans BrandsBELFaema-Flandria04:50:25  +  00:13:07=30,680 
50 BELJaak De BoeverFRASolo-Terrot-Englebert04:50:25  +  00:13:07=30,680 
51 BELWilly SchroedersBELG.B.C-Libertas04:50:26  +  00:13:08=30,678 
52 FRAJean MilesiFRAMercier-BP-Hutchinson04:50:26  +  00:13:08=30,678 
53 ITACarlo AzziniITACarpano04:50:26  +  00:13:08=30,678 
54 BELMarcel OngenaeBELFaema-Flandria04:50:26  +  00:13:08=30,678 
55 BELFrans AerenhoutsBELG.B.C-Libertas04:50:26  +  00:13:08=30,678 
56 ESPEmilio CruzESPFerrys04:50:26  +  00:13:08=30,678 
57 FRAPierre EveraertFRASaint Raphael-Geminiani-Dunlop04:50:26  +  00:13:08=30,678 
58 FRAGérard ThiélinFRASaint Raphael-Geminiani-Dunlop04:50:26  +  00:13:08=30,678 
59 FRAJean DottoFRAMargnat-Paloma-Motul-Dunlop04:50:26  +  00:13:08=30,678 
60 ESPAntonio BertranESPFerrys04:50:26  +  00:13:08=30,678 
61 BELJoseph PlanckaertBELFaema-Flandria04:50:26  +  00:13:08=30,678 
62 BELRik Van LooyBELG.B.C-Libertas04:50:26  +  00:13:08=30,678 
63 ITARoberto FalaschiBELI.B.A.C-Molteni04:50:26  +  00:13:08=30,678 
64 ESPAntonio SuarezBELFaema-Flandria04:50:26  +  00:13:08=30,678 
65 ESPValentin UrionaNLDKas04:50:26  +  00:13:08=30,678 
66 ESPSebastián ElorzaNLDKas04:50:26  +  00:13:08=30,678 
67 BELLudo JanssensBELG.B.C-Libertas04:52:35  +  00:15:17=30,453 
68 FRAPierre BeuffeuilFRAMercier-BP-Hutchinson04:53:12  +  00:15:54=30,389 
69 ITAGermano BaraleITACarpano04:53:13  +  00:15:55=30,387 
70 NEDHuub ZilverbergBELG.B.C-Libertas04:53:13  +  00:15:55=30,387 
71 ESPJosé GomezBELFaema-Flandria04:54:30  +  00:17:12=30,255 
72 FRAJean GraczykFRAMargnat-Paloma-Motul-Dunlop04:54:30  +  00:17:12=30,255 
73 ESPLuis OtañoFRAMargnat-Paloma-Motul-Dunlop04:55:09  +  00:17:51=30,188 
74 BELGuillaume Van TongerlooBELG.B.C-Libertas04:55:09  +  00:17:51=30,188 
75 BELMartin Van GeneugdenBELG.B.C-Libertas04:55:16  +  00:17:58=30,176 
76 BELBenoni BeheytBELWiel´s-Groene Leeuw04:55:16  +  00:17:58=30,176 
77 BELAlfons HellemansFRAMercier-BP-Hutchinson04:55:16  +  00:17:58=30,176 
78 BELGilbert Desmet 2BELWiel´s-Groene Leeuw04:55:16  +  00:17:58=30,176 
79 BELRaymond ImpanisFRAPeugeot-BP-Englebert04:55:16  +  00:17:58=30,176 
80 FRAAnatole NovakFRASaint Raphael-Geminiani-Dunlop04:55:58  +  00:18:40=30,105 
81 BELDaniel DoomBELWiel´s-Groene Leeuw04:55:58  +  00:18:40=30,105 
82 BELEmile DaemsFRAPeugeot-BP-Englebert04:55:58  +  00:18:40=30,105 
83 ESPJulio San EmeterioESPFerrys04:57:00  +  00:19:42=30,000 
84 ESPRaúl ReyESPFerrys04:57:03  +  00:19:45=29,995 
85 ITAAntonio BailettiITACarpano04:57:03  +  00:19:45=29,995 
86 FRAGuy EpaudFRAPelforth-Sauvage-Lejeune-Wolbe..04:57:03  +  00:19:45=29,995 
87 ITALoris GuernieriITACarpano04:57:03  +  00:19:45=29,995 
88 BELRené Van MeenenBELWiel´s-Groene Leeuw04:57:03  +  00:19:45=29,995 
89 BELClément RomanBELFaema-Flandria04:57:03  +  00:19:45=29,995 
90 FRAAndré DarrigadeFRAMargnat-Paloma-Motul-Dunlop04:57:33  +  00:20:15=29,945 
91 FRAJoseph ThominFRAMargnat-Paloma-Motul-Dunlop04:57:33  +  00:20:15=29,945 
92 FRAJean DupontFRAMargnat-Paloma-Motul-Dunlop04:57:33  +  00:20:15=29,945 
93 IRLSeamus ElliottFRASaint Raphael-Geminiani-Dunlop04:57:33  +  00:20:15=29,945 
94 FRAGeorges GroussardFRAPelforth-Sauvage-Lejeune-Wolbe..04:57:33  +  00:20:15=29,945 
95 BELYvo MolenaersBELWiel´s-Groene Leeuw04:57:33  +  00:20:15=29,945 
96 BELAndré MesselisBELWiel´s-Groene Leeuw04:57:33  +  00:20:15=29,945 
97 BELEdgard SorgeloosBELG.B.C-Libertas04:57:33  +  00:20:15=29,945 
98 BELRobert LelangueFRASolo-Terrot-Englebert04:59:56  +  00:22:38=29,707 
99 ITAGiuseppe CeramiFRAPeugeot-BP-Englebert04:59:56  +  00:22:38=29,707 
100 BELMarcel SeynaeveFRASolo-Terrot-Englebert04:59:56  +  00:22:38=29,707 
101 ESPAntonio BarrutiaNLDKas04:59:56  +  00:22:38=29,707 
102 BELLouis ProostFRASolo-Terrot-Englebert04:59:56  +  00:22:38=29,707 
103 BELArthur DecabooterFRASolo-Terrot-Englebert04:59:56  +  00:22:38=29,707 
104 BELRoger De BreukerFRASolo-Terrot-Englebert04:59:56  +  00:22:38=29,707 
105 BELWilly DerbovenBELG.B.C-Libertas05:02:54  +  00:25:36=29,416 
106 BELJean SimonFRAPeugeot-BP-Englebert05:05:26  +  00:28:08=29,172 

Withdrawls: 6
 
Rider
Team
Reason
24  BELNoël ForéBELFaema-FlandriaDid not finish
50  FRAJoseph VellyFRAMargnat-Paloma-Motul-DunlopDid not finish
67  NEDJan JanssenFRAPelforth-Sauvage-Lejeune-WolberDid not finish
68  FRARoland LacombeFRAPelforth-Sauvage-Lejeune-WolberDid not finish
82  BELRoger BaensBELG.B.C-LibertasDid not finish
110  ESPEusebio VelezNLDKasDid not finish

Todays birthdays.

1874  Pierre Cnops
1888  Paul Boillat
1911  Roger Lapebie
1940  Angelo Ottaviani
1944  Pieter Nassen
1956  Serge Demierre
1957  Erwin Lienhard
1959  Jean-Marie Grezet
1960  Ludo De Keulenaer
1961  Dirk De Wolf
1961  Carlos Jaramillo
1980  Lars Bak